Regional Weather Roundup
Issued by NWS

Home | Current Version | Previous Version | Graphics & Text | Print | Product List | Glossary On
Versions: 1 2 3 4 5 6 7 8 9 10 11 12 13 14 15 16 17 18 19 20 21 22 23 24 25 26 27 28 29 30 31 32 33 34 35 36 37 38 39 40 41 42 43 44 45 46 47 48 49 50
000
ASUS43 KLOT 142108
RWRIL

ILLINOIS REGIONAL WEATHER ROUNDUP
NATIONAL WEATHER SERVICE CHICAGO/ROMEOVILLE IL
300 PM CST THU DEC 14 2017

NOTE: "FAIR" INDICATES FEW OR NO CLOUDS BELOW 12,000 FEET WITH NO
SIGNIFICANT WEATHER AND/OR OBSTRUCTIONS TO VISIBILITY.

* THESE STATIONS ARE NOT UNDER NWS QUALITY CONTROL. THEY ALSO MAY NOT
  REPORT WEATHER SUCH AS PRECIPITATION OR FOG.

ILZ001-002-007-009-015-016-024-142200-
NORTHWEST ILLINOIS

CITY           SKY/WX    TMP DP  RH WIND       PRES   REMARKS
MOLINE         CLOUDY    29  17  61 W5        30.07S WCI  24
STERLING*        N/A     25  11  55 SW3       30.08S
SAVANNA*       SUNNY     27  11  51 S3        30.07S
$$

ILZ003-004-008-010-011-017-018-142200-
NORTH CENTRAL ILLINOIS

CITY           SKY/WX    TMP DP  RH WIND       PRES   REMARKS
ROCKFORD       MOSUNNY   27  10  49 NW3       30.07R
FREEPORT*      SUNNY     25  12  58 SW5       30.06S WCI  19
ROCHELLE*      SUNNY     25  11  54 NW5       30.06S WCI  19
DE KALB*       SUNNY     24  11  57 SW3       30.05S
PERU*          CLOUDY    26  10  51 W3        30.08R
$$

ILZ005-006-012>014-019>023-142200-
NORTHEAST ILLINOIS

CITY           SKY/WX    TMP DP  RH WIND       PRES   REMARKS
CHICAGO-OHARE  PTSUNNY   26   7  44 NW3       30.04S
CHICAGO-MIDWAY PTSUNNY   28  11  48 W5        30.05R WCI  23
AURORA         SUNNY     25  10  53 NW7       30.06R WCI  17
LANSING*       MOSUNNY   28  15  58 SW3       30.05R
JOLIET*        MOSUNNY   28   9  44 W3        30.06S
WAUKEGAN       MOSUNNY   26  10  50 NW6       30.03S WCI  19
DUPAGE AIRPORT SUNNY     25  10  53 NW6       30.04S WCI  18
KANKAKEE*      PTSUNNY   28  14  54 W5        30.07R WCI  23
WHEELING       SUNNY     27  10  49 CALM      30.06R
MORRIS*        CLOUDY    28   9  46 NW6       30.06R WCI  21
ROMEOVILLE*    MOSUNNY   27   9  47 NW3       30.05S
NORTHERLY ISL    N/A     25  12  58 NE2         N/A
$$

LMZ740>746-142200-
SOUTHERN LAKE MICHIGAN

STATION/POSITION SKY/WX   TEMP    WIND        PRES    VSBY  WAVE
                          AIR SEA DIR/SP/G                  HT/PER
                          (F)     (DEG/KT/KT) (MB)    (MI)  (FT/S)
HARRISON CRIB              25     330/  9/ 11   N/A
BURNHAM HARBOR             27     360/  3/ 11   N/A
CALUMET HARBOR             27     350/  7/ 10 1016.5
BURNS HARBOR               28     290/ 10/ 12 1017.3
MICHIGAN CITY              22     140/  9/ 10   N/A
$$

ILZ025>027-034>036-040-047-049-050-058-095>099-142200-
WEST-CENTRAL ILLINOIS

CITY           SKY/WX    TMP DP  RH WIND       PRES   REMARKS
QUINCY         CLOUDY    28  16  60 W5        30.08R WCI  23
GALESBURG*     CLOUDY    29  19  66 CALM      30.08R
MACOMB*        PTSUNNY   31  17  56 CALM      30.09S
JACKSONVILLE*  CLOUDY    29  16  58 W5        30.09R WCI  24
PITTSFIELD*    CLOUDY    30  18  59 CALM      30.09R
$$

ILZ028>032-037-038-041>044-048-051>054-059>061-142200-
CENTRAL ILLINOIS

CITY           SKY/WX    TMP DP  RH WIND       PRES   REMARKS
PONTIAC        CLOUDY    28  13  52 CALM      30.08R
BLOOMINGTON    MOSUNNY   30  16  56 SW3       30.06R
DECATUR        CLOUDY    31  17  56 SW6       30.06R WCI  25
PEORIA         CLOUDY    30  13  49 NW6       30.08R WCI  24
LACON*         CLOUDY    27  11  53 CALM      30.08R
LINCOLN*       CLOUDY    31  15  52 W5        30.08R WCI  26
SPRINGFIELD    CLOUDY    32  18  56 NW8       30.08R WCI  25
TAYLORVILLE    CLOUDY    32  17  53 SW3       30.07R
$$

ILZ033-039-045-046-055>057-062-063-142200-
EAST-CENTRAL ILLINOIS

CITY           SKY/WX    TMP DP  RH WIND       PRES   REMARKS
CHAMPAIGN      CLOUDY    31  17  56 VRB3      30.06R
DANVILLE*      CLOUDY    30  17  57 CALM      30.03R
RANTOUL*       CLOUDY    32  19  58 CALM      30.06R
MATTOON        CLOUDY    31  18  58 W5        30.05R WCI  26
PARIS*         CLOUDY    31  18  58 CALM      30.06S
$$

ILZ079-100>102-142200-
SOUTHWEST ILLINOIS

CITY           SKY/WX    TMP DP  RH WIND       PRES   REMARKS
ALTON          CLOUDY    30  19  64 NW6       30.09R WCI  24
BELLEVILLE     CLOUDY    33  17  53 NW7       30.07S WCI  26
CAHOKIA*       CLOUDY    32  17  54 NW5       30.09R WCI  27
SPARTA*        CLOUDY    32  21  64 N5        30.09R WCI  27
$$

ILZ064>066-069>071-074>076-080>082-084>086-088>090-092>094-142200-
SOUTH-CENTRAL ILLINOIS

CITY           SKY/WX    TMP DP  RH WIND       PRES   REMARKS
CARBONDALE     CLOUDY    33  21  61 NW8       30.08R WCI  26
CAIRO*         CLOUDY    35  23  63 N8        30.08S WCI  28
EFFINGHAM*     CLOUDY    32  19  58 W3        30.08R
MARION         CLOUDY    34  19  55 NW7       30.09R WCI  28
MT. VERNON     CLOUDY    34  19  54 SW3       30.07R
CENTRALIA*     CLOUDY    33  22  61 NW6       30.06R WCI  28
SALEM*         CLOUDY    34  19  54 CALM      30.06S
METROPOLIS*    CLOUDY    35  22  61 NW3       30.08R
$$

ILZ067-068-072-073-078-083-087-091-142200-
SOUTHEAST ILLINOIS

CITY           SKY/WX    TMP DP  RH WIND       PRES   REMARKS
LAWRENCEVILLE  CLOUDY    34  21  59 NE5       30.07R WCI  30
FLORA*         CLOUDY    33  20  58 CALM      30.08R
FAIRFIELD*     CLOUDY    33  20  58 CALM      30.06S
HARRISBURG*    CLOUDY    33  20  59 NE3       30.07S
ROBINSON*      CLOUDY    31  20  62 CALM      30.08R
CARMI*         CLOUDY    33  21  61 N6        30.06S WCI  27
$$

ABBREVIATIONS USED IN REMARKS
   TC - TEMPERATURE IN CELSIUS
  WCI - WIND CHILL INDEX
   HX - HEAT INDEX
  VSB - VISIBILITY
$$





USA.gov is the U.S. government's official web portal to all federal, state and local government web resources and services.